HARMALA Weather Reports


time (UTC)temp
F
wind
direction
speed
knots
gust
knots
rain 1hr
in
rain 24hr
in
rain mn
in
humidity
%
barometer
mb
20260507064726 47 0.0 0.0 0.00 0.00 0.00 34 1016.5
20260507062726 47 0.0 0.0 0.00 0.00 0.00 38 1016.4
20260507060725 46 0.0 0.0 0.00 0.00 0.00 41 1016.3
20260507054725 45 0.0 0.0 0.00 0.00 0.00 45 1016.3
20260507052725 42 0.0 0.0 0.00 0.00 0.00 47 1016.3
20260507050725 41 0.0 0.0 0.00 0.00 0.00 49 1016.5
20260507044725 40 0.0 0.0 0.00 0.00 0.00 52 1016.6
20260507042725 35 0.0 0.0 0.00 0.00 0.00 69 1016.6
20260507034725 29 0.0 0.0 0.00 0.00 0.00 84 1016.9
20260507032726 25 0.0 0.0 0.00 0.00 0.00 89 1016.9
20260507030726 24 0.0 0.0 0.00 0.00 0.00 89 1017.0
20260507024725 23 0.0 0.0 0.00 0.00 0.00 89 1016.9
20260507020725 24 0.0 0.0 0.00 0.00 0.00 88 1016.7
20260507014725 24 0.0 0.0 0.00 0.00 0.00 88 1016.5
20260507012725 24 0.0 0.0 0.00 0.00 0.00 86 1016.5
20260507010725 24 0.0 0.0 0.00 0.00 0.00 85 1016.4
20260507004724 25 0.0 0.0 0.00 0.00 0.00 85 1016.2
20260507002725 25 0.0 0.0 0.00 0.00 0.00 83 1016.3
20260507000725 25 0.0 0.0 0.00 0.00 0.00 83 1016.1
20260506234725 26 0.0 0.0 0.00 0.00 0.00 83 1015.9
20260506232724 26 0.0 0.0 0.00 0.00 0.00 80 1015.8
20260506230726 27 0.0 0.0 0.00 0.00 0.00 79 1015.7
20260506224724 27 0.0 0.0 0.00 0.00 0.00 78 1015.7
20260506222725 28 0.0 0.0 0.00 0.00 0.00 76 1015.6
20260506220725 28 0.0 0.0 0.00 0.00 0.00 75 1015.4
20260506214724 29 0.0 0.0 0.00 0.00 0.00 73 1015.3
20260506212725 29 0.0 0.0 0.00 0.00 0.00 73 1015.2
20260506210724 30 0.0 0.0 0.00 0.00 0.00 70 1015.1
20260506204724 31 0.0 0.0 0.00 0.00 0.00 68 1015.1
20260506202724 32 0.0 0.0 0.00 0.00 0.00 63 1015.0
20260506200724 33 0.0 0.0 0.00 0.00 0.00 59 1015.0
20260506194723 35 0.0 0.0 0.00 0.00 0.00 55 1014.8
20260506192723 37 0.0 0.0 0.00 0.00 0.00 50 1014.7
20260506190723 40 0.0 0.0 0.00 0.00 0.00 42 1014.6
20260506184723 43 0.0 0.0 0.00 0.00 0.00 34 1014.4
20260506182724 44 0.0 0.0 0.00 0.00 0.00 32 1014.2
20260506180724 45 0.0 0.0 0.00 0.00 0.00 30 1014.1
20260506174724 46 0.0 0.0 0.00 0.00 0.00 29 1013.9
20260506172722 47 0.0 0.0 0.00 0.00 0.00 28 1013.7
20260506170723 48 0.0 0.0 0.00 0.00 0.00 28 1013.6
20260506164722 48 0.0 0.0 0.00 0.00 0.00 27 1013.4
20260506162723 48 0.0 0.0 0.00 0.00 0.00 26 1013.4
20260506160723 49 0.0 0.0 0.00 0.00 0.00 25 1013.3
20260506154723 49 0.0 0.0 0.00 0.00 0.00 23 1013.4
20260506152723 49 0.0 0.0 0.00 0.00 0.00 22 1013.3
20260506150722 49 0.0 0.0 0.00 0.00 0.00 22 1013.3
20260506144722 50 0.0 0.0 0.00 0.00 0.00 25 1013.3
20260506142722 50 0.0 0.0 0.00 0.00 0.00 25 1013.2
20260506140722 50 0.0 0.0 0.00 0.00 0.00 27 1013.1
20260506134722 50 0.0 0.0 0.00 0.00 0.00 25 1013.2
20260506132722 51 0.0 0.0 0.00 0.00 0.00 21 1013.1
20260506130721 50 0.0 0.0 0.00 0.00 0.00 25 1012.9
20260506124722 50 0.0 0.0 0.00 0.00 0.00 24 1012.9
20260506123047 50 0.0 0.0 0.00 0.00 0.00 24 1012.7
20260506120722 50 0.0 0.0 0.00 0.00 0.00 25 1012.7
20260506114722 50 0.0 0.0 0.00 0.00 0.00 23 1012.7
20260506112722 50 0.0 0.0 0.00 0.00 0.00 24 1012.5
20260506110722 49 0.0 0.0 0.00 0.00 0.00 23 1012.5
20260506104723 49 0.0 0.0 0.00 0.00 0.00 23 1012.5
20260506102723 50 0.0 0.0 0.00 0.00 0.00 27 1012.2
20260506100723 49 0.0 0.0 0.00 0.00 0.00 29 1012.2
20260506094723 49 0.0 0.0 0.00 0.00 0.00 27 1012.0
20260506092723 49 0.0 0.0 0.00 0.00 0.00 26 1011.9
20260506090723 48 0.0 0.0 0.00 0.00 0.00 29 1011.9
20260506084723 47 0.0 0.0 0.00 0.00 0.00 31 1011.9
20260506082723 47 0.0 0.0 0.00 0.00 0.00 35 1011.7
20260506080722 46 0.0 0.0 0.00 0.00 0.00 34 1011.6
20260506072723 46 0.0 0.0 0.00 0.00 0.00 40 1011.3
20260506070723 44 0.0 0.0 0.00 0.00 0.00 44 1011.2